This is the latest recevied weather packets stored in our database for station/object F1ZRP-13. If no packets are shown the sender has not sent any weather packets the latest 10 day(s).
| Time | Temp. | Humidity | Pressure | Rain* | Wind** | Luminosity | Snow |
|---|---|---|---|---|---|---|---|
| 1777973821 | 16.11° C | 76% | 1010 hPa | - | - | - | - |
| 1777972811 | 16.11° C | 75% | 1010 hPa | - | - | - | - |
| 1777971707 | 16.67° C | 74% | 1010.1 hPa | - | - | - | - |
| 1777970526 | 16.67° C | 76% | 1010.1 hPa | - | - | - | - |
| 1777969535 | 16.11° C | 77% | 1010.1 hPa | - | - | - | - |
| 1777968552 | 15.56° C | 79% | 1010.2 hPa | - | - | - | - |
| 1777967607 | 15.56° C | 80% | 1010.4 hPa | - | - | - | - |
| 1777966623 | 15° C | 81% | 1010.5 hPa | - | - | - | - |
| 1777965716 | 14.44° C | 82% | 1010.7 hPa | - | - | - | - |
| 1777964901 | 14.44° C | 83% | 1010.8 hPa | - | - | - | - |
| 1777963999 | 13.89° C | 84% | 1010.9 hPa | - | - | - | - |
| 1777962973 | 13.33° C | 84% | 1011 hPa | - | - | - | - |
| 1777962115 | 13.33° C | 85% | 1011.1 hPa | - | - | - | - |
| 1777961135 | 12.78° C | 86% | 1010.9 hPa | - | - | - | - |
| 1777960264 | 12.78° C | 87% | 1010.9 hPa | - | - | - | - |
| 1777959515 | 12.78° C | 87% | 1011 hPa | - | - | - | - |
| 1777958411 | 12.22° C | 88% | 1011.1 hPa | - | - | - | - |
| 1777957313 | 11.67° C | 89% | 1011 hPa | - | - | - | - |
| 1777956253 | 11.67° C | 89% | 1010.9 hPa | - | - | - | - |
| 1777954022 | 11.67° C | 89% | 1011 hPa | - | - | - | - |
| 1777952982 | 11.67° C | 89% | 1011.1 hPa | - | - | - | - |
| 1777952040 | 12.22° C | 87% | 1011.1 hPa | - | - | - | - |
| 1777951078 | 12.78° C | 86% | 1011.2 hPa | - | - | - | - |
| 1777950381 | 12.78° C | 86% | 1011.4 hPa | - | - | - | - |
| 1777949280 | 12.78° C | 86% | 1011.4 hPa | - | - | - | - |
* Rain since midnight (hover to see other rain measurements)
** Current wind speed in m/s (hover to see current wind gust speed)